GFSNGP_700_rhum_084.txt.gz
RH
75 69 62 57 72 80 76 72 70 65 60 51 47 55 59 65 72 68 65 61 59 57 55 53 51 50 49 47 44 40 35 30 24 24 31 41 43 43 44 43 41 35 26 22
87 96 89 82 76 68 82 87 76 70 58 54 57 65 74 77 81 76 66 62 60 58 57 54 52 50 50 52 48 40 37 34 30 37 47 48 48 48 41 28 22 21 25 28
74 95 98 100 90 88 89 86 79 76 59 64 70 67 68 80 75 68 64 63 61 58 60 57 59 65 77 78 72 62 61 58 50 53 52 52 42 26 22 23 29 32 33 39
77 77 89 79 85 86 86 86 91 80 62 56 59 69 70 72 68 64 64 62 62 83 89 92 93 97 98 92 83 75 72 67 62 58 51 32 26 28 35 38 37 43 43 44
67 75 72 73 74 82 91 81 80 78 70 64 62 67 66 66 66 66 64 69 87 90 93 93 99 99 100 100 99 93 83 76 67 48 33 32 42 42 44 49 50 48 50 52
77 65 70 84 73 71 79 79 72 82 76 72 71 72 67 69 67 63 75 85 88 90 87 97 98 100 100 99 100 99 90 74 52 41 51 48 44 48 53 55 56 58 57 59
79 74 75 88 74 81 89 75 81 78 79 78 76 76 84 89 91 93 90 97 95 98 100 99 100 100 100 100 100 97 76 64 49 56 50 47 50 53 58 60 65 65 64 64
79 73 73 77 85 88 89 94 94 93 86 89 95 92 95 95 96 99 100 100 98 98 100 100 100 100 100 100 100 96 66 56 49 52 54 54 57 56 61 66 70 67 59 36
79 78 72 78 87 95 91 93 98 95 95 89 88 96 97 99 100 97 97 98 99 100 100 99 98 100 100 100 100 100 72 49 49 53 57 64 63 66 69 71 59 34 29 24
78 71 71 83 89 95 95 92 94 94 90 87 95 97 98 98 98 99 98 97 99 99 100 94 88 90 100 100 100 100 77 52 55 67 68 74 71 69 70 38 30 29 24 21
80 83 77 76 78 80 84 90 90 85 84 96 98 98 98 97 96 99 99 99 99 100 100 93 79 73 84 100 100 100 84 66 75 81 78 76 75 67 31 30 30 25 22 21
78 78 80 81 82 83 86 87 88 91 94 92 95 93 94 94 99 98 100 98 99 100 99 93 76 68 76 98 100 100 90 84 87 86 80 76 64 30 30 30 26 24 21 21
73 83 88 88 92 93 85 78 81 87 92 94 92 88 86 88 91 98 98 100 99 98 100 97 83 72 69 76 84 84 82 81 80 80 80 69 29 29 32 29 26 23 21 21
77 81 77 75 80 83 81 76 76 78 77 78 88 94 89 87 84 84 88 93 96 98 96 96 93 79 72 71 72 74 74 76 80 82 69 32 28 31 32 30 28 25 23 22
68 75 80 82 84 87 86 84 81 77 78 88 98 97 94 90 86 82 79 77 89 96 98 97 92 92 82 80 81 80 80 81 80 71 40 27 28 31 34 32 30 28 25 24
84 81 83 88 88 96 98 98 89 84 86 99 100 97 99 95 90 85 83 80 76 90 96 99 100 98 97 90 86 86 84 82 83 70 38 28 28 30 34 34 32 30 28 26
94 100 100 100 100 100 100 100 100 100 92 93 96 98 94 91 91 91 83 84 86 93 100 100 98 99 96 99 98 93 87 86 87 80 49 31 29 30 31 34 34 33 31 29
100 100 100 100 100 100 100 100 100 100 98 83 88 87 86 85 83 82 81 78 82 94 100 100 100 100 100 100 100 99 98 98 96 91 69 42 31 30 30 32 34 35 34 32
95 100 100 100 100 100 100 99 96 96 90 86 87 86 79 75 71 68 69 74 79 94 99 98 100 100 99 97 99 99 99 100 99 98 98 88 49 33 32 52 55 35 34 35
98 100 100 100 100 99 100 100 100 100 100 100 100 99 83 67 62 60 61 70 82 92 99 99 95 98 99 99 96 92 96 97 97 100 99 97 97 92 91 90 74 83 37 41
95 96 96 97 97 94 97 94 93 93 95 98 100 100 100 95 80 73 72 74 84 94 100 95 94 93 90 95 98 100 100 100 99 98 99 99 98 97 98 96 96 94 76 94
96 95 94 94 83 75 66 58 49 40 61 90 97 97 98 100 100 88 81 82 87 95 96 97 99 97 96 96 93 99 100 99 99 99 98 99 99 98 96 96 96 97 96 96
95 95 95 94 92 89 86 77 60 36 34 26 28 71 96 99 100 100 99 99 99 100 100 100 100 100 100 99 99 100 97 98 99 99 98 98 98 96 96 96 96 96 96 96
96 96 93 82 66 52 40 37 17 6 6 8 11 12 16 59 85 96 98 98 96 96 99 100 100 100 100 100 99 98 97 97 97 98 97 97 97 96 96 96 96 96 96 96
95 83 69 36 18 15 11 8 7 8 8 7 6 5 5 5 7 13 37 91 97 97 97 97 97 97 98 98 97 97 97 97 97 97 97 97 96 96 96 96 96 96 96 96
79 70 54 20 20 21 20 17 15 13 10 9 7 6 5 4 4 4 4 6 22 70 94 97 96 97 97 97 97 97 97 97 97 97 97 97 96 96 96 96 96 96 96 96
70 61 42 22 26 25 22 19 16 12 9 6 5 4 4 4 4 3 3 3 3 3 5 11 38 86 97 97 97 97 97 97 97 97 97 97 97 97 96 96 96 96 96 96

GFSNGP_700_rhum_087.txt.gz
RH
70 64 60 53 60 46 78 80 70 61 58 46 49 47 44 59 63 61 65 67 61 59 60 60 56 54 51 48 46 45 44 44 40 38 34 30 25 25 28 37 42 43 45 45
88 86 79 56 46 60 82 91 87 73 59 55 49 51 45 56 62 66 68 68 67 64 59 57 56 55 55 53 52 50 48 44 41 37 33 31 29 39 48 49 50 48 42 31
94 95 92 97 73 74 75 88 77 67 60 64 57 64 56 54 67 74 71 66 63 62 62 61 59 57 57 57 59 60 55 49 44 43 43 39 42 50 51 49 37 27 26 30
90 95 92 74 77 76 78 74 67 72 73 74 62 67 68 68 79 78 70 67 66 65 64 69 75 80 87 95 94 88 79 67 67 61 60 55 55 53 38 28 28 34 38 39
65 74 72 72 76 87 90 78 84 86 90 70 56 63 74 73 73 74 69 68 68 67 84 92 93 92 87 98 99 100 100 89 83 74 70 62 51 35 33 42 42 43 48 50
73 66 66 84 76 77 87 82 69 78 78 69 65 63 62 70 70 71 70 70 67 83 90 89 97 95 99 96 100 99 100 99 95 86 75 59 47 47 52 53 52 56 56 58
77 71 79 91 74 78 87 76 66 68 76 82 78 77 73 70 72 81 86 85 85 92 92 94 94 100 99 100 99 100 100 100 97 80 74 73 63 54 58 60 60 62 63 65
77 70 69 81 82 79 88 92 93 90 89 85 79 73 78 91 94 95 98 100 99 99 100 96 99 99 99 100 100 100 100 100 86 74 69 77 56 61 64 66 67 70 69 66
81 79 73 87 93 96 92 83 91 92 96 91 95 91 90 92 97 100 100 100 100 100 100 99 99 100 100 100 100 100 100 99 78 67 62 71 65 65 66 70 74 70 68 49
82 79 76 86 91 99 98 98 98 96 96 92 92 90 97 96 96 98 100 100 99 98 98 99 100 99 96 100 100 100 100 100 80 58 58 65 67 66 68 75 74 60 34 27
76 85 77 84 90 91 91 92 94 92 90 86 95 96 95 92 94 97 98 98 98 99 99 99 100 93 84 86 100 100 100 100 85 59 65 70 76 77 77 72 46 31 28 24
77 76 82 80 81 82 82 85 88 88 91 93 95 94 95 93 91 96 97 99 97 96 98 100 100 92 80 74 99 100 100 100 97 86 88 81 80 76 73 42 30 29 24 22
69 69 76 84 87 88 89 86 79 77 84 91 94 95 94 91 90 89 94 97 100 98 100 100 100 95 81 77 98 100 100 100 96 94 91 85 79 75 42 30 30 27 24 22
72 71 72 75 78 80 82 83 83 78 76 77 76 76 84 94 93 91 88 88 92 96 98 98 98 96 86 78 77 82 90 90 89 90 89 84 81 55 29 31 30 27 25 23
71 70 70 72 76 81 83 81 80 81 80 78 79 79 80 96 98 95 89 85 84 90 97 98 99 95 93 85 81 77 75 76 80 81 82 83 70 30 29 32 31 29 28 25
76 76 76 79 80 81 82 83 96 94 85 83 79 88 100 98 100 100 94 87 83 84 83 85 100 98 95 93 92 86 82 80 80 81 81 74 46 28 29 32 33 32 30 27
70 71 78 93 100 98 100 100 100 100 100 99 91 95 97 99 99 97 94 88 85 82 86 97 100 100 99 96 95 97 95 90 91 88 86 76 45 29 29 30 33 34 32 31
70 83 99 100 100 100 100 100 100 100 100 100 100 96 87 84 84 92 92 88 86 87 88 99 100 100 100 100 97 98 99 98 97 97 96 92 79 43 30 29 30 31 34 34
79 81 99 100 100 100 100 100 100 100 98 95 97 93 90 85 81 78 76 76 79 78 86 85 96 100 100 100 98 99 98 100 100 99 98 97 96 85 53 35 31 31 32 62
83 87 92 96 100 98 100 100 100 100 100 100 100 100 100 100 97 88 71 66 63 63 70 80 87 98 100 97 99 96 95 97 99 100 100 100 98 98 97 96 82 59 42 43
91 93 92 92 93 94 93 78 60 56 75 94 95 97 99 100 100 100 97 82 68 68 75 86 95 100 99 99 97 97 98 100 98 97 98 99 100 99 100 98 97 97 97 95
94 96 92 93 95 94 92 89 83 73 57 41 37 58 83 93 97 100 100 100 96 89 88 95 98 100 99 96 94 98 97 96 94 97 97 98 100 100 98 98 98 98 97 96
97 94 93 95 89 77 62 50 50 49 23 9 12 22 20 32 81 94 96 98 99 100 100 98 98 98 98 98 97 97 97 97 98 98 98 97 97 97 97 97 98 98 97 97
96 95 95 76 59 22 15 12 12 8 7 8 7 6 7 8 9 11 21 46 85 96 96 97 97 97 97 97 97 98 99 100 99 98 97 97 97 97 97 97 97 97 96 96
96 95 77 64 34 19 21 21 18 16 14 12 10 8 7 6 5 4 4 5 7 11 53 93 97 97 97 97 97 97 97 97 98 97 97 97 97 97 97 97 97 96 96 96
96 82 68 55 35 23 25 24 21 18 16 12 9 7 6 5 5 4 4 4 4 4 4 4 10 37 82 96 97 97 96 97 97 97 97 97 97 97 97 97 97 96 96 96
85 75 65 50 38 27 28 28 24 16 11 8 7 6 5 4 4 4 4 4 4 4 4 3 3 3 3 4 14 57 96 97 97 97 97 97 97 96 97 97 96 96 96 96

GFSNGP_700_rhum_093.txt.gz
RH
70 68 94 50 35 35 42 44 51 51 49 59 55 47 46 48 46 41 50 53 53 53 54 54 54 55 57 58 57 57 57 56 58 57 54 50 46 43 41 39 35 33 32 31
63 97 88 85 59 32 32 39 39 45 43 59 57 55 57 53 54 48 54 59 59 58 58 61 60 56 56 58 59 61 61 59 58 56 53 50 47 44 41 40 38 35 34 28
97 98 97 93 77 61 44 43 37 36 38 42 55 57 64 57 62 53 55 54 56 62 66 67 68 66 63 61 59 58 57 56 55 54 52 50 48 45 43 41 37 34 30 28
97 96 98 79 77 64 45 35 36 37 39 54 63 66 66 63 65 58 60 64 64 68 69 68 66 65 62 61 60 59 60 62 62 67 64 56 50 44 39 37 35 33 33 35
86 90 72 70 75 78 62 49 46 53 52 64 70 79 71 68 66 65 62 67 68 68 68 67 66 64 62 62 66 72 82 87 79 88 85 75 61 56 53 56 54 50 51 52
68 71 66 90 81 99 99 89 76 68 72 71 74 78 69 65 66 69 67 68 71 68 67 67 69 67 64 82 92 93 97 89 98 89 99 100 99 86 84 77 67 58 46 38
79 72 85 95 85 98 87 83 70 75 73 79 86 86 75 68 68 71 69 68 65 63 61 62 61 62 78 97 100 98 94 90 100 99 95 98 100 100 100 93 69 55 55 53
79 73 73 92 90 84 94 87 73 69 85 90 87 84 80 79 77 74 66 64 75 83 88 88 89 78 92 100 99 98 99 98 97 96 94 100 100 100 100 100 91 80 74 69
87 82 76 85 87 100 94 89 90 90 92 93 91 86 82 77 89 88 88 88 87 91 98 97 92 93 96 99 100 100 99 99 99 99 99 99 100 100 100 100 99 94 88 83
81 81 79 85 90 90 96 84 90 98 91 95 96 98 98 93 96 90 87 86 83 95 98 98 95 98 98 99 97 98 98 99 99 98 98 100 100 99 100 100 100 98 96 92
84 84 81 88 96 91 96 96 96 96 96 95 93 90 97 94 98 93 90 86 94 97 99 99 98 98 98 98 97 98 97 93 100 100 98 100 100 95 100 100 99 97 98 96
84 86 87 87 96 95 94 92 90 92 95 94 96 98 96 98 95 92 90 90 90 98 98 97 98 97 97 98 97 96 86 83 96 100 99 100 100 97 97 100 100 97 97 88
83 80 87 93 92 90 91 90 94 98 92 84 83 83 85 92 94 93 91 92 90 90 95 97 98 99 100 99 98 97 89 91 100 100 99 99 100 100 100 100 98 99 97 90
82 85 83 84 92 97 98 95 93 92 88 82 79 79 80 81 81 79 77 84 95 95 91 89 94 99 100 100 100 100 97 90 99 100 99 98 100 100 100 100 99 100 95 72
78 86 86 82 79 78 81 82 84 88 88 83 74 70 71 79 81 81 85 80 80 100 98 94 94 90 94 100 100 100 100 99 92 90 100 100 100 100 100 99 99 94 84 41
82 80 81 82 82 83 84 86 92 95 98 99 95 92 87 84 81 85 95 95 98 98 99 100 97 90 84 91 97 100 100 99 100 96 87 91 97 99 100 97 92 88 60 32
84 76 75 76 79 82 91 98 100 100 100 100 100 100 100 99 94 84 85 92 93 92 88 94 99 94 94 96 100 100 100 100 99 99 98 94 86 87 90 89 88 80 42 31
74 72 75 78 80 95 100 100 100 100 100 100 99 97 98 98 95 96 89 85 82 81 80 80 90 94 95 93 90 96 95 100 96 99 98 98 98 97 95 95 96 84 44 30
74 76 75 77 83 88 90 97 99 100 99 98 100 97 95 97 99 100 100 94 95 99 92 81 78 81 88 89 89 91 97 94 92 96 97 98 98 98 97 97 98 97 95 65
80 79 76 78 83 86 90 90 86 76 67 61 57 65 74 91 100 100 100 100 100 100 100 97 83 72 71 77 81 86 92 97 99 90 100 99 98 97 98 97 97 97 97 97
86 84 85 89 90 91 92 92 90 88 88 87 82 71 53 38 34 56 82 95 97 99 100 100 98 86 77 73 73 77 85 92 98 100 99 99 96 98 98 98 97 97 97 97
97 95 96 93 92 90 72 51 21 13 15 21 25 16 8 7 9 20 20 24 51 79 96 100 100 99 98 95 90 89 93 97 100 100 100 100 99 89 89 97 98 98 97 97
97 98 96 95 96 74 53 21 18 17 13 11 11 11 10 8 7 7 8 8 7 7 8 14 37 84 98 98 98 98 97 98 98 97 96 96 97 98 98 96 95 95 95 96
97 97 97 96 94 65 49 26 24 24 20 19 17 15 12 10 8 7 6 6 6 5 5 5 4 5 6 11 40 82 97 98 98 97 97 97 97 97 98 98 98 98 97 97
96 96 97 96 96 66 54 39 28 26 26 22 16 12 9 8 7 6 5 5 5 4 4 4 4 4 4 4 4 4 4 4 12 41 81 93 97 96 96 96 96 96 97 97
96 96 96 96 96 84 58 40 30 27 26 22 18 15 14 13 12 11 11 11 10 10 10 9 8 7 6 6 6 5 5 4 4 4 3 3 3 9 36 82 96 97 97 96
96 96 96 96 96 95 79 30 26 26 26 23 21 19 21 22 23 24 22 19 18 17 16 15 13 12 10 8 7 7 6 6 6 5 5 5 4 4 4 4 6 42 90 97

GFSNGP_700_rhum_099.txt.gz
RH
71 87 91 86 81 88 74 75 91 58 59 62 51 50 46 48 48 45 45 44 42 41 40 40 39 38 36 38 43 44 47 53 55 57 54 55 60 61 62 62 60 58 57 55
91 65 74 80 85 68 72 75 66 57 62 61 52 52 51 50 47 50 52 50 49 48 46 45 42 40 41 44 44 43 47 52 55 58 59 60 58 56 54 53 53 52 51 49
97 93 100 88 81 73 61 52 52 58 56 64 56 51 53 53 50 50 48 50 54 53 51 51 51 52 52 53 54 56 57 58 56 55 53 53 54 53 53 53 53 52 50 48
97 99 90 79 66 63 61 56 47 47 54 56 59 52 50 50 53 53 50 50 47 47 49 49 50 52 53 56 57 57 56 55 55 54 54 53 53 54 57 61 60 55 52 47
97 76 77 67 67 75 67 46 36 34 39 49 50 45 50 64 65 60 52 54 54 49 48 48 51 53 55 57 58 58 58 58 57 57 58 60 62 67 76 78 79 74 63 55
84 68 58 96 74 78 80 74 52 41 34 36 37 40 69 67 68 67 65 65 62 59 58 58 59 58 58 60 61 62 62 60 60 65 77 80 83 87 83 78 80 85 82 71
88 74 86 88 87 93 97 96 78 60 41 36 44 72 78 73 67 69 71 68 65 63 65 67 65 64 62 62 63 65 66 63 62 70 79 82 84 82 85 88 86 86 91 92
77 69 75 92 94 96 93 87 72 69 72 58 70 79 80 78 72 70 71 68 67 65 64 63 61 60 61 60 61 63 64 62 66 79 84 81 87 95 95 92 90 94 94 100
91 96 82 96 97 87 94 86 83 89 87 85 93 90 89 88 83 80 78 73 68 64 56 51 61 73 74 80 85 85 83 90 97 93 87 97 100 100 93 94 93 97 90 96
85 87 89 95 96 93 94 96 95 94 97 97 95 93 90 86 85 87 88 86 84 81 77 75 73 76 97 93 97 96 92 100 100 100 100 99 95 96 99 92 94 98 93 98
90 88 88 89 94 89 96 100 92 98 96 97 97 95 93 90 89 83 84 87 85 83 79 76 86 94 98 100 99 96 88 90 98 100 99 97 96 97 99 97 98 97 97 99
98 95 96 92 95 98 93 96 96 98 95 96 97 96 92 92 92 92 93 93 89 85 84 80 87 98 100 98 98 99 98 95 96 95 95 97 91 87 98 98 97 98 100 99
89 92 91 96 95 94 93 94 94 94 94 99 99 96 89 84 83 82 79 76 76 78 78 84 86 86 90 99 97 100 100 96 98 97 95 95 95 91 98 98 97 96 100 98
91 88 90 88 96 99 99 98 99 100 100 100 100 95 86 82 78 74 69 69 71 74 76 74 80 88 89 90 98 100 100 100 100 99 97 95 96 95 96 98 97 97 98 100
90 89 91 93 96 95 91 86 85 86 87 87 86 87 88 82 73 66 62 62 64 72 77 80 78 74 70 88 96 93 96 100 100 100 100 99 97 96 96 98 98 98 98 98
89 96 100 98 100 96 88 83 82 87 94 98 100 100 100 95 90 81 72 68 69 70 76 85 86 78 75 74 82 100 99 93 94 100 100 100 98 98 98 96 96 98 97 98
76 83 93 97 96 93 92 79 86 89 92 98 100 100 98 93 84 78 76 73 68 68 74 73 72 73 73 73 70 84 100 100 97 90 91 100 100 97 98 98 97 97 97 96
69 72 68 62 70 75 85 96 95 99 99 98 94 91 89 86 85 82 80 78 78 76 75 74 77 80 80 78 74 71 75 93 100 97 99 96 94 99 98 98 98 97 97 97
79 83 91 87 81 84 85 87 86 82 81 78 75 71 69 68 72 73 65 77 78 81 89 88 90 89 87 86 81 79 76 80 91 95 97 98 96 97 97 96 96 97 97 97
95 94 90 87 84 82 78 82 85 84 82 81 82 84 85 82 78 69 55 42 46 62 70 78 89 91 94 96 95 96 92 83 80 84 90 94 96 96 100 100 98 97 98 98
81 89 95 96 88 84 84 84 85 76 62 34 17 13 16 26 41 34 16 9 12 23 26 30 29 29 59 87 96 100 99 95 90 85 85 88 93 100 100 100 100 100 100 99
78 84 92 95 98 94 92 92 86 62 24 17 14 12 10 10 10 10 8 7 8 11 14 22 17 8 7 8 12 34 84 96 97 96 96 95 98 100 100 100 100 100 100 100
73 82 92 91 96 96 95 98 88 50 25 24 22 20 19 17 14 12 10 8 9 9 7 6 6 5 5 5 5 5 5 6 10 21 52 77 94 97 99 100 100 99 99 99
77 79 90 92 94 95 96 96 92 50 31 26 25 25 19 14 11 9 8 8 7 6 6 6 7 7 7 7 7 6 6 5 5 4 4 4 4 4 4 5 8 11 38 75
88 86 90 94 95 95 96 96 96 61 41 31 27 26 21 18 16 15 14 15 17 19 21 22 22 21 20 19 18 16 15 14 13 12 11 10 9 8 8 8 7 6 6 5
97 92 95 95 96 96 96 96 96 93 49 32 28 25 22 20 19 21 24 27 29 31 32 30 28 25 22 19 16 14 12 12 12 13 13 13 13 13 12 12 12 12 12 11
99 95 95 96 96 96 95 96 96 96 96 95 80 39 23 23 28 33 40 44 44 43 41 38 33 26 20 16 14 15 15 15 14 13 13 14 14 14 14 14 14 13 13 12

GFSNGP_700_rhum_102.txt.gz
RH
68 74 87 86 78 85 90 95 97 81 68 76 77 60 55 49 45 43 44 40 38 37 33 30 28 32 34 38 45 48 50 46 44 50 50 54 58 59 60 58 60 59 60 59
82 64 68 75 84 75 91 92 92 75 72 66 63 59 57 58 51 47 46 45 43 41 38 36 34 32 33 36 40 42 43 44 46 55 59 62 60 57 57 57 57 55 52 48
94 77 82 88 65 73 69 81 94 84 67 73 66 57 58 57 55 56 57 56 56 52 50 48 46 44 43 44 46 47 48 50 54 59 59 60 58 55 53 53 52 52 50 50
97 92 96 89 68 74 71 64 60 62 62 58 60 54 59 59 55 51 52 52 54 55 54 54 55 56 56 57 57 57 57 58 59 58 56 55 55 55 54 53 54 56 56 56
96 97 78 89 72 73 68 76 69 52 50 51 52 57 53 64 64 60 54 48 50 49 49 50 51 52 52 56 58 60 61 61 60 58 58 58 58 59 59 60 59 59 63 66
92 90 96 98 76 81 74 75 82 69 62 54 55 52 56 72 68 67 64 62 61 58 56 54 57 57 58 61 61 62 62 62 61 61 60 59 57 61 66 72 77 82 78 83
91 94 90 80 90 89 84 97 87 77 65 55 51 46 64 79 75 69 70 71 70 68 65 64 61 62 63 63 63 64 66 66 67 66 65 64 67 73 82 79 81 84 87 85
79 74 96 89 92 92 98 100 82 72 76 84 72 66 68 85 77 72 74 74 73 71 70 68 67 66 64 63 60 64 65 66 64 66 71 71 75 93 83 81 85 95 94 88
88 94 89 86 90 87 90 93 89 95 93 92 87 91 87 85 83 80 77 76 75 74 72 69 65 61 61 65 71 71 71 78 80 85 84 89 84 83 89 100 96 95 96 88
84 93 88 89 90 94 96 100 98 95 97 98 100 98 96 94 91 87 84 84 83 81 82 82 79 75 75 75 83 98 93 92 99 95 99 100 98 99 100 98 98 100 99 95
97 92 91 87 92 98 99 98 93 96 100 100 98 97 98 97 95 94 88 84 83 90 87 84 78 72 78 87 98 99 99 100 99 92 90 91 92 92 95 98 92 96 100 98
99 94 93 88 92 95 99 100 99 89 98 94 96 94 93 93 94 93 92 91 92 89 84 77 72 71 78 94 100 100 100 99 98 96 94 95 92 93 96 95 86 94 99 98
94 92 87 83 86 96 96 100 96 96 95 93 96 98 98 95 90 87 85 80 73 67 64 65 68 74 80 85 92 100 100 100 100 100 98 95 95 92 91 91 92 94 96 98
85 97 92 89 83 84 94 94 94 97 98 99 99 99 97 90 82 76 73 71 65 61 63 72 78 76 77 79 87 94 98 100 100 100 100 100 100 99 93 91 91 95 95 96
98 99 92 92 93 95 92 93 90 87 87 88 91 91 93 93 95 91 80 72 66 65 73 74 77 80 87 86 81 76 76 92 97 97 99 100 100 100 96 92 91 92 95 97
95 87 90 97 100 100 99 98 95 90 83 79 95 100 100 100 100 100 98 90 82 70 71 68 71 78 80 75 75 76 76 79 90 100 100 99 100 100 98 97 95 95 96 98
87 86 77 74 74 83 94 95 92 81 82 95 99 99 99 99 96 91 88 84 79 75 67 67 69 72 73 72 68 65 67 72 72 92 100 100 98 100 99 95 93 96 98 99
75 72 70 72 76 69 57 58 64 82 90 91 91 93 92 89 86 84 84 83 81 82 82 79 78 79 75 73 71 70 70 70 73 73 81 96 100 100 99 93 99 99 98 98
82 87 89 90 85 89 79 73 74 76 78 81 80 77 76 75 73 68 62 58 55 57 66 69 76 86 90 88 87 89 88 82 79 78 78 84 100 100 100 100 100 100 100 98
68 72 77 87 93 91 90 83 75 73 77 78 74 68 54 40 42 65 79 75 65 47 35 31 36 45 52 52 70 87 92 96 95 94 91 90 94 96 100 100 100 100 100 100
61 63 68 78 90 92 94 93 84 80 80 74 59 24 12 11 13 16 19 16 9 7 7 12 22 26 24 11 9 9 22 48 96 100 100 100 100 99 100 100 100 100 100 100
34 49 60 70 79 97 99 96 98 90 88 79 39 19 19 18 16 15 14 12 9 8 10 10 10 10 8 8 6 5 5 6 7 15 46 85 98 100 100 100 100 100 99 97
21 27 54 67 74 92 100 97 96 96 97 87 37 24 23 22 20 16 13 10 9 8 7 7 6 6 5 5 5 5 5 5 5 5 5 5 5 5 8 10 17 28 47 63
17 27 39 76 81 86 97 98 96 97 97 90 43 27 26 25 19 14 12 11 11 11 11 13 14 16 18 19 20 19 19 17 15 13 12 11 10 10 9 9 9 8 8 7
34 40 50 75 88 92 96 96 96 96 96 95 52 34 28 26 22 19 17 17 19 22 24 28 29 29 30 29 27 24 21 17 14 13 13 13 13 13 13 13 12 12 12 12
50 53 58 84 94 94 96 96 96 96 96 96 75 38 28 25 22 21 21 25 29 34 40 41 41 39 36 32 26 20 16 15 16 16 15 15 14 14 15 16 17 17 17 16
60 62 81 94 99 95 96 96 96 96 96 96 96 93 66 36 31 28 29 38 47 48 46 45 43 40 35 28 22 17 16 17 18 17 16 16 17 18 20 20 21 21 22 21